Temperature
17 17 17 17 17 17 17 17 17 17 17 17 17 17 17 17 17 17 17 17 17 17 16 16 16 16 16 16 16 16 16 16 16 16 16 16 16 16 15 15 15 15 15
17 17 17 17 17 17 17 17 17 17 17 17 17 17 17 17 16 17 16 17 17 17 16 16 16 16 16 16 16 16 16 16 16 16 16 16 16 16 15 15 15 15 15
17 17 17 17 17 17 17 17 17 17 17 17 17 17 17 17 17 16 16 16 16 17 17 17 16 16 16 16 16 16 16 16 16 16 16 16 16 15 15 15 15 15 15
17 17 17 17 17 17 17 17 17 17 17 17 17 17 17 17 17 16 17 16 16 16 16 17 16 16 16 16 16 16 16 16 16 16 16 15 15 15 15 15 15 15 15
17 17 17 17 17 17 17 17 17 17 17 17 17 17 17 17 17 17 17 16 16 16 16 17 17 17 16 16 16 16 16 16 16 16 16 15 15 15 15 15 15 15 15
17 17 17 17 17 17 17 17 17 17 17 17 18 17 17 17 17 17 17 17 16 16 16 16 16 16 17 16 16 16 16 16 16 16 16 16 15 15 15 15 15 15 15
17 18 17 17 17 17 17 17 17 17 17 17 17 17 17 17 17 17 17 17 17 17 16 16 16 16 16 16 16 16 16 16 16 16 16 16 15 15 15 15 15 15 15
17 17 17 17 17 17 17 17 17 17 17 17 17 17 18 18 17 18 17 17 17 17 17 16 16 16 16 16 16 16 16 16 16 16 16 15 15 15 15 15 15 15 15
17 17 17 17 17 17 17 17 17 17 17 17 17 18 18 19 18 18 17 17 17 17 17 17 16 16 16 16 16 16 16 16 16 16 16 15 15 15 15 15 15 15 15
17 17 17 17 17 17 17 17 17 17 17 17 17 17 17 18 18 18 17 17 17 17 17 17 17 16 16 16 16 16 16 16 16 16 16 15 15 15 15 15 15 15 14
17 17 17 17 17 17 17 17 17 17 17 17 17 17 17 17 18 18 18 17 17 17 17 17 17 16 16 16 16 16 16 16 16 16 15 15 15 15 15 15 14 14 14
17 17 17 17 17 17 17 17 17 17 17 17 17 18 18 18 18 18 18 17 17 17 17 17 17 16 16 16 16 16 16 16 16 15 15 15 15 15 15 14 14 14 14
17 17 17 17 17 17 17 17 17 17 17 17 17 17 18 18 18 18 18 18 17 17 17 16 16 16 16 16 16 16 16 16 15 15 15 15 15 14 14 14 14 14 13
17 17 17 17 17 17 17 17 17 17 17 17 17 17 17 17 17 18 18 17 17 17 16 16 16 16 16 16 16 16 15 15 15 15 15 15 14 14 14 14 13 13 13
17 17 17 17 17 17 17 17 17 17 17 17 17 17 17 17 17 17 17 17 17 17 17 16 16 16 15 15 15 15 15 15 15 14 14 14 14 14 13 13 13 13 12
17 17 17 17 17 17 17 17 17 17 17 17 17 17 17 17 17 17 17 17 17 17 17 16 16 15 15 15 15 15 15 14 14 14 14 13 13 13 13 12 12 12 12
17 17 17 17 17 17 17 17 17 17 17 17 16 16 17 16 16 16 16 16 16 16 16 16 15 15 15 14 14 14 14 14 14 13 13 13 13 12 12 12 11 11 11
17 17 17 17 17 17 17 17 17 16 16 16 16 16 16 16 16 16 16 16 16 16 16 15 15 14 14 14 14 13 13 13 13 13 13 12 12 11 11 11 11 10 10
17 17 17 17 17 16 16 17 16 16 16 16 16 16 16 16 16 16 16 16 16 16 15 15 14 14 14 13 13 13 12 12 12 12 12 11 11 11 10 10 10 10 9
17 17 17 17 16 16 16 16 16 16 16 16 16 16 16 16 16 16 16 15 15 15 15 15 14 14 13 13 12 12 12 11 11 11 10 10 10 10 10 9 9 9 9
16 16 16 16 16 16 16 16 16 16 16 16 16 16 16 15 15 15 15 15 15 14 14 14 14 13 13 12 12 12 11 11 10 10 10 9 9 9 9 8 8 8 8
16 16 16 16 16 16 16 16 16 15 15 15 15 15 15 15 15 15 15 15 14 14 14 13 13 13 12 12 12 11 11 10 10 9 9 9 8 8 8 8 7 7 7
16 16 16 16 16 16 16 16 15 15 15 15 15 15 15 15 15 14 14 14 14 14 13 13 13 13 12 12 11 11 10 10 10 9 9 8 8 8 7 7 7 7 6
16 16 16 15 15 15 15 15 15 15 15 14 14 14 14 14 14 14 14 13 13 13 13 13 12 12 12 11 11 11 10 10 9 8 8 8 8 7 7 7 6 6 6
16 15 15 15 15 15 15 15 15 14 14 14 14 14 13 13 13 13 13 13 13 12 12 12 12 11 11 11 10 10 9 9 8 8 8 8 8 7 7 7 6 6 6
15 15 15 15 15 15 15 14 14 14 14 13 13 13 13 13 13 12 12 12 12 12 11 11 11 10 10 10 10 9 9 9 9 8 8 8 7 7 7 7 6 6 6
Wind_Speed
5 5 5 4 5 5 6 5 5 6 5 5 5 5 4 3 4 5 8 10 9 9 9 9 8 8 8 8 8 7 7 7 7 6 6 6 5 5 5 5 4 4 4
5 5 5 4 4 5 4 4 5 5 4 4 4 4 4 5 4 4 7 10 10 9 9 9 9 9 8 8 8 7 7 7 7 7 7 6 6 6 5 5 5 4 4
6 5 4 5 5 5 5 4 5 4 4 4 4 4 4 4 5 4 5 6 9 11 10 10 10 9 9 9 9 9 8 9 9 8 8 8 7 7 6 6 6 6 6
6 6 5 5 5 6 6 4 4 4 3 3 4 3 4 4 4 5 5 6 6 8 11 11 10 10 10 10 10 10 10 10 10 10 9 9 9 8 8 7 7 7 7
8 7 5 4 6 5 5 5 5 4 4 3 4 4 3 3 4 5 5 6 6 6 7 12 11 10 10 10 10 10 11 11 11 11 11 10 10 9 9 8 7 7 7
8 8 7 7 7 5 5 4 3 3 3 4 4 3 3 3 4 4 5 6 6 7 7 7 9 11 12 11 10 10 10 11 11 12 11 11 10 9 9 8 7 7 7
8 8 7 7 7 6 6 6 5 6 5 4 3 3 3 4 4 4 5 4 6 6 6 7 7 6 9 13 12 11 10 10 10 10 11 11 10 10 9 9 8 7 7
9 9 8 7 7 6 7 6 6 5 4 5 4 3 3 4 4 4 4 5 4 5 6 7 6 6 6 7 9 12 10 9 9 9 10 11 11 10 10 9 8 7 7
10 10 9 8 6 7 7 7 7 7 5 5 5 4 3 3 3 4 4 4 4 4 4 5 7 7 7 6 6 11 11 10 9 9 9 10 10 10 9 9 8 7 6
10 10 10 9 7 7 7 8 8 6 6 6 5 5 5 3 3 3 4 4 4 4 3 4 5 6 6 6 5 6 9 9 8 7 7 7 8 8 8 8 7 6 6
10 10 10 9 8 8 8 8 6 8 7 7 5 5 5 4 6 4 4 4 4 3 3 3 4 4 6 6 6 7 9 8 7 7 7 6 6 7 7 6 5 4 3
8 10 10 9 9 8 8 8 8 9 8 7 6 6 6 5 5 5 4 5 4 3 2 1 2 3 4 4 5 9 9 8 8 7 7 7 7 7 6 6 5 4 4
8 9 9 9 9 8 8 8 8 8 8 8 8 7 6 6 5 4 4 4 3 3 2 2 2 2 3 4 6 9 8 9 9 9 9 9 9 9 9 8 8 7 7
7 7 9 9 9 9 9 8 8 8 7 8 9 8 6 7 6 6 5 5 4 4 4 3 2 2 3 4 7 9 8 10 11 12 11 11 11 11 10 11 11 11 10
7 8 8 8 8 8 8 7 7 8 7 8 8 8 8 7 6 7 6 6 6 5 4 4 3 2 4 5 8 8 9 12 13 13 13 13 13 13 13 13 13 12 11
7 8 8 8 8 8 8 8 8 8 8 7 6 7 7 7 6 6 6 6 6 5 3 2 3 3 5 7 9 9 11 14 13 14 14 14 13 13 13 13 12 11 11
7 8 8 8 8 8 8 8 8 7 8 7 7 8 8 6 5 5 6 6 5 4 4 3 3 4 5 6 8 9 10 10 12 13 14 13 13 13 12 12 11 10 10
7 7 7 7 8 8 8 8 8 7 7 8 8 7 8 6 6 6 5 6 4 4 5 5 4 4 5 6 7 7 8 9 10 13 13 13 13 12 12 11 11 10 9
6 6 7 7 7 7 7 7 7 7 7 7 7 7 7 7 7 6 6 5 5 5 5 6 6 5 5 6 7 6 7 7 9 12 12 12 12 12 11 11 10 9 8
6 6 6 6 6 6 6 6 6 6 6 5 5 5 5 6 7 6 5 5 5 5 5 6 6 6 5 6 6 6 6 5 5 7 8 9 11 11 11 10 9 8 7
5 4 4 4 4 4 4 5 5 5 5 4 4 4 3 2 1 2 3 5 6 5 6 6 6 6 6 7 6 6 7 6 4 4 5 6 7 7 8 9 8 7 6
3 3 3 3 3 2 2 2 3 4 4 4 4 3 3 4 5 5 4 3 3 6 6 6 6 7 7 7 6 7 7 6 4 3 4 4 4 3 4 5 8 6 4
3 3 3 3 2 2 4 3 2 3 3 3 3 3 3 4 6 6 7 7 5 4 3 4 6 6 7 7 8 8 7 5 4 5 4 4 3 3 4 6 8 4 2
3 3 3 2 2 3 4 3 3 3 2 2 2 3 4 4 4 6 7 6 5 4 4 3 4 4 5 7 7 7 7 6 5 4 4 3 3 3 3 5 8 5 3
4 3 3 3 3 3 4 4 3 3 4 3 2 3 4 5 6 8 8 8 7 6 11 12 11 11 10 9 8 7 7 7 5 4 3 2 3 3 3 3 6 8 6
4 4 3 3 3 3 3 3 3 4 4 4 4 4 4 5 6 7 8 8 8 7 8 9 10 11 11 10 8 5 6 6 5 4 4 3 3 3 3 2 3 5 6
Wind_Direction
168 156 153 160 163 150 159 162 151 145 153 157 156 154 153 130 140 146 138 153 164 170 172 171 173 171 171 171 174 171 173 176 173 171 170 172 176 178 181 181 185 185 190
166 170 165 170 169 171 164 167 157 162 170 154 163 157 168 158 155 164 153 157 170 178 181 180 181 181 185 186 187 185 186 188 188 187 188 192 196 199 201 201 204 212 214
174 186 173 181 174 166 165 183 173 175 176 173 169 172 180 173 167 175 171 164 169 180 186 189 189 190 194 196 198 199 201 200 200 198 201 205 207 211 218 218 217 222 225
192 202 191 189 174 183 182 181 196 190 188 187 175 190 181 174 176 181 185 182 181 179 181 188 195 199 203 206 208 210 211 212 211 209 212 216 218 222 227 229 229 232 234
202 210 204 182 190 194 193 200 186 196 194 195 186 184 189 185 184 193 190 188 186 193 181 174 193 203 210 214 217 218 217 217 217 218 219 220 223 225 227 230 232 235 238
206 214 207 196 203 196 200 209 186 202 213 211 221 175 191 187 197 193 204 192 188 195 197 183 191 200 206 214 219 222 220 219 218 219 218 219 220 221 223 226 229 235 239
208 215 220 196 211 206 212 207 201 199 208 203 212 204 204 201 195 197 209 202 192 195 195 194 209 202 194 204 215 221 222 219 216 213 215 218 220 220 221 224 228 235 241
213 211 219 216 209 209 214 218 213 223 209 201 220 215 211 195 203 201 194 197 198 192 196 198 201 206 217 194 192 202 210 212 215 216 218 219 219 221 221 224 226 230 233
219 224 218 226 219 221 213 216 214 220 224 216 222 233 235 218 190 181 195 193 195 200 204 199 202 199 206 202 185 185 194 206 214 220 223 222 220 217 217 215 218 223 228
223 224 223 224 224 228 220 222 217 223 226 229 216 233 259 288 243 195 188 186 190 203 212 215 203 199 203 202 187 166 178 196 203 208 209 209 208 207 207 210 211 215 219
222 225 223 221 222 229 228 232 224 230 226 231 230 223 227 232 242 237 220 197 187 194 197 206 207 201 196 196 190 169 165 175 183 188 186 183 185 185 184 182 182 177 166
219 222 223 219 222 228 226 226 228 227 236 237 242 240 230 228 228 226 226 215 203 194 170 168 198 191 190 181 168 136 149 158 162 160 157 153 149 149 147 145 141 138 130
218 218 221 218 222 225 229 226 223 236 231 230 233 239 242 239 235 232 226 230 218 203 185 187 193 184 176 159 139 136 142 149 149 145 138 133 128 124 119 114 111 107 102
225 218 220 221 224 226 229 224 230 229 229 229 237 241 247 244 237 236 231 229 223 216 200 188 167 165 152 143 130 137 132 137 138 134 131 127 124 120 115 109 102 95 90
219 214 220 224 227 226 229 229 235 232 228 231 235 229 236 240 237 242 236 234 234 230 218 183 183 156 144 122 126 131 126 124 127 126 123 121 119 115 112 107 103 98 92
220 213 218 222 224 226 228 229 233 231 229 231 237 241 238 243 235 237 235 234 233 235 231 189 168 156 134 128 121 120 117 117 118 120 119 119 119 116 114 110 106 101 96
217 217 217 220 224 227 228 226 231 230 230 230 230 227 228 242 240 239 235 234 235 233 217 183 143 132 135 131 124 124 124 121 116 119 121 121 121 120 116 112 107 101 94
214 215 217 219 224 226 224 223 227 227 228 230 230 228 227 221 221 234 232 228 221 216 205 176 164 154 143 138 132 130 127 124 119 118 120 122 123 123 120 116 109 103 97
208 213 213 217 222 224 223 226 229 228 229 232 233 228 226 223 224 223 222 218 209 196 187 178 172 158 153 146 137 127 118 115 120 122 120 121 123 123 120 115 111 107 102
208 211 216 219 218 218 220 225 228 230 229 231 233 233 232 227 224 219 211 202 193 183 176 175 165 161 156 150 148 148 140 132 129 127 118 120 124 125 122 119 114 109 105
205 207 210 211 216 219 221 219 220 219 216 217 222 225 225 202 196 202 204 187 181 183 177 175 169 167 169 168 171 168 154 141 129 139 140 136 139 138 136 131 120 108 100
194 192 199 203 207 220 108 128 208 212 209 207 209 205 181 150 129 118 112 118 162 181 183 182 181 181 180 177 166 163 155 156 158 163 157 143 154 147 141 125 118 117 111
181 182 184 192 191 144 111 134 162 191 195 197 193 184 177 145 132 131 119 110 95 84 120 185 187 186 174 173 168 168 168 166 148 154 167 155 158 154 147 124 129 141 158
177 175 171 174 167 133 118 130 142 161 153 153 162 160 152 147 141 138 128 115 103 86 92 131 153 161 156 156 165 164 152 138 128 148 184 176 168 171 156 145 154 175 197
174 170 162 159 160 137 118 134 151 139 132 128 127 135 143 143 126 132 134 129 119 103 82 87 93 102 107 124 141 149 154 161 159 162 189 193 168 170 176 180 172 184 201
170 162 144 143 151 151 127 145 162 149 143 140 129 123 113 130 136 146 147 142 138 133 125 113 105 111 116 120 128 151 167 174 165 161 170 195 172 181 183 179 187 192 199
Height
1583 1584 1584 1585 1588 1588 1589 1590 1591 1592 1593 1594 1595 1596 1597 1597 1598 1599 1599 1599 1600 1601 1602 1603 1604 1605 1606 1607 1608 1609 1610 1610 1611 1612 1612 1613 1613 1613 1614 1614 1614 1614 1614
1583 1584 1585 1586 1588 1589 1590 1591 1592 1592 1594 1595 1595 1596 1597 1598 1598 1599 1600 1599 1600 1601 1602 1603 1604 1605 1606 1607 1608 1609 1610 1610 1611 1612 1612 1612 1613 1613 1613 1614 1614 1614 1614
1582 1584 1586 1586 1588 1588 1589 1590 1591 1593 1593 1594 1595 1596 1597 1597 1598 1598 1600 1600 1600 1601 1601 1602 1603 1604 1605 1606 1607 1608 1609 1610 1610 1611 1611 1612 1612 1613 1613 1613 1613 1613 1613
1582 1583 1585 1587 1587 1589 1589 1590 1592 1593 1594 1594 1595 1596 1596 1597 1597 1598 1599 1600 1601 1601 1601 1602 1603 1603 1604 1605 1606 1607 1608 1609 1609 1610 1610 1611 1611 1612 1612 1612 1612 1612 1613
1581 1583 1585 1586 1587 1588 1590 1591 1592 1593 1593 1593 1594 1595 1596 1596 1597 1598 1598 1599 1599 1600 1601 1601 1602 1602 1603 1604 1605 1605 1606 1607 1608 1609 1609 1610 1610 1610 1611 1611 1611 1611 1611
1580 1582 1584 1584 1587 1588 1589 1590 1590 1591 1592 1592 1594 1595 1595 1596 1596 1597 1597 1598 1598 1599 1601 1601 1601 1601 1602 1603 1603 1604 1605 1605 1606 1607 1607 1608 1608 1609 1609 1609 1609 1609 1609
1579 1580 1583 1583 1585 1587 1588 1589 1590 1590 1591 1592 1593 1593 1594 1594 1595 1595 1596 1597 1598 1598 1599 1599 1600 1601 1601 1601 1602 1602 1603 1604 1604 1605 1605 1606 1606 1607 1607 1607 1607 1607 1607
1577 1580 1580 1582 1584 1585 1586 1587 1588 1589 1591 1591 1592 1592 1593 1594 1593 1594 1595 1595 1596 1597 1597 1598 1598 1598 1600 1600 1600 1601 1601 1602 1602 1603 1603 1604 1604 1604 1605 1605 1605 1605 1605
1575 1577 1579 1580 1582 1583 1584 1585 1586 1587 1589 1590 1590 1591 1591 1591 1592 1593 1593 1593 1594 1595 1596 1596 1596 1597 1597 1598 1599 1599 1599 1600 1600 1601 1601 1601 1601 1602 1602 1602 1603 1603 1603
1572 1574 1576 1577 1579 1581 1582 1583 1585 1585 1586 1588 1588 1588 1590 1590 1590 1591 1591 1591 1592 1592 1593 1594 1595 1595 1595 1596 1596 1597 1597 1598 1598 1599 1599 1599 1599 1599 1600 1600 1600 1600 1600
1568 1571 1572 1574 1576 1578 1579 1580 1581 1583 1584 1585 1586 1587 1587 1588 1588 1589 1589 1590 1590 1591 1591 1592 1592 1593 1593 1594 1594 1595 1595 1596 1596 1596 1597 1597 1597 1597 1597 1598 1598 1598 1597
1565 1567 1569 1571 1573 1575 1576 1577 1578 1579 1581 1582 1583 1584 1585 1585 1586 1586 1587 1587 1588 1589 1589 1589 1590 1590 1591 1591 1592 1592 1593 1593 1594 1594 1594 1594 1595 1595 1595 1595 1595 1595 1595
1561 1563 1566 1567 1569 1571 1573 1574 1574 1576 1577 1578 1579 1581 1582 1582 1583 1584 1584 1585 1585 1586 1586 1587 1587 1588 1588 1589 1589 1589 1590 1590 1591 1591 1592 1592 1592 1593 1593 1593 1593 1592 1592
1558 1560 1562 1564 1565 1567 1569 1570 1572 1573 1573 1574 1576 1577 1578 1579 1580 1581 1581 1582 1583 1583 1584 1584 1585 1585 1586 1586 1586 1587 1587 1588 1588 1589 1590 1590 1590 1591 1591 1591 1590 1590 1590
1555 1557 1558 1560 1562 1563 1565 1566 1568 1568 1570 1571 1572 1573 1574 1575 1576 1577 1578 1579 1580 1580 1581 1581 1582 1582 1583 1583 1583 1584 1585 1585 1586 1587 1587 1588 1588 1588 1588 1588 1588 1587 1587
1552 1553 1555 1557 1558 1560 1561 1562 1564 1565 1565 1566 1567 1569 1570 1572 1573 1573 1574 1575 1576 1577 1578 1578 1578 1579 1580 1581 1581 1582 1582 1583 1584 1584 1585 1585 1586 1586 1586 1586 1585 1585 1584
1549 1550 1552 1553 1555 1556 1557 1558 1560 1560 1561 1562 1563 1564 1565 1566 1568 1569 1570 1571 1572 1573 1574 1575 1575 1576 1577 1578 1578 1580 1580 1581 1581 1582 1582 1583 1583 1583 1583 1583 1583 1582 1582
1546 1547 1549 1550 1551 1552 1553 1554 1555 1557 1558 1558 1559 1560 1561 1562 1563 1565 1566 1567 1568 1569 1570 1571 1572 1573 1573 1575 1576 1577 1578 1579 1579 1580 1580 1580 1581 1581 1581 1581 1580 1580 1580
1543 1545 1546 1547 1548 1549 1550 1551 1552 1553 1554 1555 1555 1556 1557 1558 1559 1560 1561 1562 1563 1565 1566 1567 1568 1569 1571 1572 1573 1574 1575 1576 1577 1577 1578 1578 1578 1579 1579 1578 1578 1578 1577
1541 1542 1543 1544 1545 1546 1547 1547 1548 1549 1550 1550 1551 1552 1552 1553 1554 1555 1556 1558 1559 1561 1562 1564 1565 1566 1567 1568 1570 1572 1573 1574 1575 1575 1575 1576 1576 1576 1576 1576 1576 1575 1575
1539 1540 1541 1541 1542 1543 1543 1544 1544 1545 1546 1547 1547 1548 1549 1549 1550 1552 1553 1554 1555 1557 1558 1560 1561 1562 1564 1565 1567 1569 1570 1571 1572 1573 1573 1574 1574 1574 1574 1573 1573 1573 1573
1537 1538 1539 1539 1540 1540 1541 1541 1541 1542 1543 1543 1544 1544 1545 1546 1547 1547 1549 1550 1552 1553 1554 1556 1558 1559 1560 1562 1564 1565 1567 1568 1569 1571 1571 1572 1573 1573 1573 1573 1571 1571 1571
1536 1536 1537 1537 1537 1538 1538 1538 1538 1539 1539 1540 1540 1541 1542 1542 1543 1544 1545 1546 1547 1549 1551 1553 1555 1556 1557 1559 1561 1562 1564 1565 1566 1567 1569 1570 1571 1571 1572 1571 1570 1570 1569
1533 1534 1534 1534 1535 1535 1535 1535 1536 1536 1536 1536 1537 1538 1538 1539 1540 1541 1542 1544 1545 1547 1548 1550 1552 1553 1555 1556 1558 1560 1561 1562 1564 1565 1567 1568 1569 1570 1570 1569 1568 1568 1567
1531 1531 1532 1532 1532 1532 1533 1533 1533 1533 1533 1534 1534 1535 1536 1537 1538 1539 1540 1541 1543 1544 1546 1547 1549 1550 1551 1553 1555 1557 1558 1560 1562 1563 1564 1566 1566 1567 1568 1568 1567 1566 1566
1528 1529 1529 1530 1530 1530 1530 1531 1531 1531 1531 1531 1532 1533 1534 1535 1536 1537 1538 1539 1540 1541 1543 1544 1546 1548 1549 1551 1552 1554 1556 1558 1560 1561 1561 1563 1564 1565 1566 1567 1566 1566 1565